Tracking 30116 objects as of 10-Feb-2025
HD Live streaming from Space Station
objects crossing your sky now

PEGASUS DEB

Track PEGASUS DEB now!
10-day predictions


NORAD ID: 25442
Int'l Code: 1994-029ADX
Perigee: 559.0 km
Apogee: 873.8 km
Inclination: 81.8 °
Period: 99.0 minutes
Semi major axis: 7087 km
RCS: 0.0116 m2 (small)
Launch date: May 19, 1994
Source: United States (US)
Launch site: AIR FORCE WESTERN TEST RANGE (AFWTR)

Note: This is SATELLITE DEBRIS
Your satellite tracking list
Your tracking list is empty




NASA's NSSDC Master Catalog

Two Line Element Set (TLE):
1 25442U 94029ADX 25040.88139908  .00011132  00000-0  18473-2 0  9991
2 25442  81.7569  90.3915 0222078   0.4473 359.6878 14.55044567480527
Source of the keplerian elements: AFSPC